Waarnemingen

Advertentie
Mijn weer
Jersey Airport, Groot Brittannië (3895): temperatuur & dauwpunt: 14.06.2018 16:00:00 - 20.06.2018 16:00:00 (BST)Jersey Airport, Groot Brittannië (3895): temperatuur -20cm & temperatuur -100cm: 14.06.2018 16:00:00 - 20.06.2018 16:00:00 (BST)Jersey Airport, Groot Brittannië (3895): windsnelheid: 14.06.2018 16:00:00 - 20.06.2018 16:00:00 (BST)Jersey Airport, Groot Brittannië (3895): windrichting: 14.06.2018 16:00:00 - 20.06.2018 16:00:00 (BST)Jersey Airport, Groot Brittannië (3895): luchtdruk: 14.06.2018 16:00:00 - 20.06.2018 16:00:00 (BST)Jersey Airport, Groot Brittannië (3895): zicht: 14.06.2018 16:00:00 - 20.06.2018 16:00:00 (BST)Jersey Airport, Groot Brittannië (3895): Zonneschijnduur: 14.06.2018 16:00:00 - 20.06.2018 16:00:00 (BST)Jersey Airport, Groot Brittannië (3895): neerslag: 14.06.2018 16:00:00 - 20.06.2018 16:00:00 (BST)
Datum & Tijd tt [°C] td [°C] tt -20cm [°C] tt -100cm [°C] ff [km/u] ff [kn] dd ppp [hPa] vv [km] sd [min] rr [mm]
20.06.2018 16:00:00 18,0 15,2 - - 15 8 W 1022,2 10 60 0,0
20.06.2018 15:00:00 18,0 15,3 - - 11 6 W 1022,4 10 48 0,0
20.06.2018 14:00:00 17,2 14,6 - - 11 6 WNW 1022,8 3,0 60 0,0
20.06.2018 13:00:00 18,6 15,8 - - 11 6 W 1022,8 3,0 60 0,0
20.06.2018 12:00:00 19,2 15,5 - - 5 3 ZW 1022,8 8 36 0,0
20.06.2018 11:00:00 16,5 15,2 - - 9 5 W 1023,2 2,5 0 0,0
20.06.2018 10:00:00 15,8 15,2 17,0 15,9 8 4 W 1023,4 4,0 0 0,0
20.06.2018 09:00:00 15,1 15,0 - - 8 4 W 1023,4 0,6 0 0,0
20.06.2018 08:00:00 14,8 14,8 - - 8 4 WNW 1023,3 0,3 0 0,0
20.06.2018 07:00:00 14,8 14,7 - - 4 2 - 1023,1 0,2 0 0,0
20.06.2018 06:00:00 14,7 14,5 - - 4 2 - 1023,1 0,4 0 0,0
20.06.2018 05:00:00 14,7 14,5 - - 4 2 - 1023,1 0,2 0 0,0
20.06.2018 04:00:00 14,8 14,5 - - 2 1 - 1023,2 1,5 0 0,0
20.06.2018 03:00:00 14,9 14,4 - - 4 2 - 1023,5 9 0 0,0
20.06.2018 02:00:00 15,0 14,4 - - 2 1 N 1023,8 12 0 0,0
20.06.2018 01:00:00 15,0 14,5 - - 8 4 NO 1024,2 10 - 0,0
20.06.2018 00:00:00 14,9 14,4 - - 9 5 NNO 1024,4 10 0 0,0
19.06.2018 23:00:00 14,0 13,3 - - 5 3 O 1024,8 10 0 0,0
19.06.2018 22:00:00 15,1 14,1 - - 9 5 NNO 1024,6 10 0 0,0
19.06.2018 21:00:00 17,2 14,3 - - 4 2 - 1024,3 10 54 0,0
19.06.2018 20:00:00 18,6 14,5 - - 8 4 NNO 1024,5 10 60 0,0
19.06.2018 19:00:00 18,1 13,9 - - 9 5 WNW 1025,0 10 60 0,0
19.06.2018 18:00:00 18,3 14,8 - - 11 6 W 1025,3 10 60 0,0
19.06.2018 17:00:00 17,9 14,6 - - 9 5 W 1025,8 30 24 0,0
19.06.2018 16:00:00 18,1 14,4 - - 11 6 W 1025,9 10 0 0,0
19.06.2018 15:00:00 18,0 15,7 - - 13 7 WZW 1026,3 10 0 0,0
19.06.2018 14:00:00 17,5 15,3 - - 16 9 WZW 1026,3 10 0 0,0
19.06.2018 13:00:00 17,3 15,3 - - 15 8 WZW 1026,5 10 0 0,0
19.06.2018 12:00:00 16,9 15,7 - - 18 10 WZW 1026,6 10 0 0,0
19.06.2018 11:00:00 16,6 16,5 - - 21 11 WZW 1026,3 10 0 0,0
19.06.2018 10:00:00 15,9 15,9 16,7 15,9 16 9 WZW 1026,6 5 0 0,0
19.06.2018 09:00:00 15,1 15,1 - - 9 5 W 1026,7 0,9 0 0,0
19.06.2018 08:00:00 14,9 14,9 - - 4 2 - 1026,5 0,5 0 0,0
19.06.2018 07:00:00 14,7 14,7 - - 8 4 WNW 1026,3 0,3 0 0,0
19.06.2018 06:00:00 14,6 14,6 - - 15 8 WZW 1025,9 0,3 0 0,0
19.06.2018 05:00:00 14,5 14,5 - - 18 10 WZW 1025,7 0,1 0 0,2
19.06.2018 04:00:00 14,3 14,3 - - 22 12 W 1025,5 0,1 0 0,0
19.06.2018 03:00:00 14,2 14,2 - - 16 9 WZW 1025,6 0,2 0 0,2
19.06.2018 02:00:00 14,2 14,2 - - 22 12 W 1025,6 0,2 0 0,0
19.06.2018 01:00:00 14,0 14,0 - - 22 12 W 1025,7 0,1 - -
19.06.2018 00:00:00 14,2 14,2 - - 26 14 W 1025,8 0,3 0 0,0
18.06.2018 23:00:00 14,4 14,4 - - 22 12 W 1026,0 0,2 0 0,0
18.06.2018 22:00:00 14,5 14,3 - - 26 14 W 1025,6 0,4 0 0,0
18.06.2018 21:00:00 14,8 14,4 - - 28 15 W 1025,3 1,5 0 0,0
18.06.2018 20:00:00 15,1 14,3 - - 18 10 W 1025,0 10 0 0,0
18.06.2018 19:00:00 15,4 14,1 - - 16 9 W 1024,8 10 0 0,0
18.06.2018 18:00:00 16,0 13,8 - - 18 10 W 1024,7 10 18 0,0
18.06.2018 17:00:00 16,0 13,7 - - 22 12 WZW 1025,0 10 0 0,0
18.06.2018 16:00:00 16,4 13,1 - - 26 14 WZW 1024,9 10 6 0,0
18.06.2018 15:00:00 16,9 13,5 - - 21 11 W 1024,8 14 42 0,0
18.06.2018 14:00:00 17,4 13,8 - - 28 15 WZW 1024,6 10 60 0,0
18.06.2018 13:00:00 16,1 13,6 - - 26 14 W 1024,6 10 6 0,0
18.06.2018 12:00:00 15,2 14,0 - - 26 14 W 1024,4 10 0 0,0
18.06.2018 11:00:00 14,3 14,0 - - 21 11 W 1024,0 10 0 0,2
18.06.2018 10:00:00 13,9 13,7 16,7 15,9 26 14 W 1023,7 6 0 0,0
18.06.2018 09:00:00 14,1 13,6 - - 26 14 W 1023,0 10 0 0,0
18.06.2018 08:00:00 13,8 13,4 - - 26 14 W 1022,6 10 0 0,0
18.06.2018 07:00:00 13,6 13,4 - - 26 14 W 1021,9 7 0 0,0
18.06.2018 06:00:00 13,5 13,2 - - 24 13 W 1021,6 10 0 0,0
18.06.2018 05:00:00 13,7 13,2 - - 26 14 W 1021,3 10 0 0,0
18.06.2018 04:00:00 13,5 13,5 - - 24 13 W 1021,1 8 0 0,0
18.06.2018 03:00:00 13,6 13,6 - - 21 11 W 1020,9 10 0 0,0
18.06.2018 02:00:00 13,5 13,5 - - 22 12 W 1020,9 7 0 0,0
18.06.2018 01:00:00 13,9 13,9 - - 28 15 W 1021,0 3,9 - 0,0
18.06.2018 00:00:00 14,1 14,1 - - 26 14 WZW 1020,7 0,2 0 0,4
17.06.2018 23:00:00 14,4 14,4 - - 28 15 WZW 1020,6 0,1 0 0,2
17.06.2018 22:00:00 14,7 14,7 - - 26 14 WZW 1020,3 0,1 0 0,2
17.06.2018 21:00:00 14,8 14,7 - - 22 12 WZW 1020,1 1,1 0 0,2
17.06.2018 20:00:00 14,9 14,6 - - 18 10 WZW 1020,0 0,6 0 0,2
17.06.2018 19:00:00 15,1 14,5 - - 15 8 ZW 1019,9 5 0 0,2
17.06.2018 18:00:00 15,2 14,4 - - 22 12 ZW 1019,7 2,5 0 0,0
17.06.2018 17:00:00 16,2 13,3 - - 24 13 ZW 1019,6 10 0 0,0
17.06.2018 16:00:00 17,0 12,3 - - 26 14 ZZW 1019,6 10 0 0,0
17.06.2018 15:00:00 16,4 11,8 - - 18 10 ZZW 1019,8 10 0 0,0
17.06.2018 14:00:00 16,4 11,4 - - 22 12 ZZW 1019,9 10 0 0,0
17.06.2018 13:00:00 16,0 11,1 - - 24 13 Z 1020,1 10 0 0,0
17.06.2018 12:00:00 17,5 11,1 - - 26 14 ZW 1020,3 10 36 0,0
17.06.2018 11:00:00 15,7 10,6 - - 28 15 ZW 1020,3 10 18 0,0
17.06.2018 10:00:00 14,7 11,6 16,7 15,9 26 14 ZW 1020,3 10 0 0,0
17.06.2018 09:00:00 15,0 11,5 - - 24 13 WZW 1020,1 10 6 0,0
17.06.2018 08:00:00 14,1 11,3 - - 26 14 WZW 1020,1 10 0 0,0
17.06.2018 07:00:00 13,7 11,5 - - 24 13 WZW 1019,6 10 0 0,0
17.06.2018 06:00:00 13,4 11,6 - - 22 12 WZW 1019,3 10 0 0,0
17.06.2018 05:00:00 13,2 11,3 - - 21 11 WZW 1019,0 10 0 0,0
17.06.2018 04:00:00 13,3 11,5 - - 24 13 W 1019,0 10 0 0,0
17.06.2018 03:00:00 13,3 11,4 - - 24 13 W 1019,2 10 0 0,0
17.06.2018 02:00:00 13,3 11,3 - - 24 13 W 1019,2 10 0 0,0
17.06.2018 01:00:00 13,4 11,0 - - 26 14 W 1019,3 10 - 0,0
17.06.2018 00:00:00 13,3 11,3 - - 26 14 W 1019,3 10 0 0,0
16.06.2018 23:00:00 13,2 11,2 - - 28 15 W 1019,1 10 0 0,0
16.06.2018 22:00:00 13,2 11,5 - - 24 13 W 1018,9 10 0 0,0
16.06.2018 21:00:00 13,1 11,3 - - 21 11 W 1018,5 10 0 0,0
16.06.2018 20:00:00 14,1 11,0 - - 24 13 W 1018,3 11 42 0,0
16.06.2018 19:00:00 14,7 12,3 - - 26 14 W 1018,0 10 12 0,0
16.06.2018 18:00:00 14,3 12,6 - - 26 14 W 1017,6 10 0 0,2
16.06.2018 17:00:00 13,7 12,6 - - 15 8 WZW 1017,5 10 0 0,4
16.06.2018 16:00:00 14,0 13,4 - - 16 9 W 1017,6 10 0 0,0
16.06.2018 15:00:00 15,4 12,5 - - 21 11 WZW 1017,2 10 0 0,0
16.06.2018 14:00:00 17,0 10,9 - - 24 13 ZZW 1017,0 10 6 0,0
16.06.2018 13:00:00 17,8 11,0 - - 24 13 ZZW 1017,1 10 6 0,0
16.06.2018 12:00:00 16,6 10,7 - - 22 12 ZZW 1017,3 10 6 0,0
16.06.2018 11:00:00 16,0 11,2 - - 22 12 ZW 1017,4 10 0 0,0
16.06.2018 10:00:00 15,9 10,3 17,0 15,7 24 13 ZW 1017,4 10 24 0,0
16.06.2018 09:00:00 15,0 11,1 - - 22 12 ZW 1017,3 10 18 0,0
16.06.2018 08:00:00 14,5 11,2 - - 16 9 ZW 1017,4 10 12 0,0
16.06.2018 07:00:00 13,4 10,9 - - 15 8 ZW 1017,3 10 6 0,0
16.06.2018 06:00:00 12,7 11,1 - - 13 7 ZW 1016,9 28 0 0,0
16.06.2018 05:00:00 12,7 11,5 - - 13 7 ZW 1017,0 17 0 0,0
16.06.2018 04:00:00 11,8 9,5 - - 11 6 ZW 1017,4 30 0 0,0
16.06.2018 03:00:00 12,7 11,2 - - 15 8 WZW 1018,0 26 0 0,0
16.06.2018 02:00:00 12,1 11,2 - - 9 5 WZW 1017,5 15 0 0,0
16.06.2018 01:00:00 12,4 11,1 - - 11 6 WZW 1018,1 17 - 0,0
16.06.2018 00:00:00 11,9 10,7 - - 5 3 W 1018,4 17 0 0,0
15.06.2018 23:00:00 11,7 10,7 - - 4 2 WNW 1018,5 10 0 0,0
15.06.2018 22:00:00 12,5 11,0 - - 8 4 WNW 1018,8 10 0 0,0
15.06.2018 21:00:00 13,3 10,9 - - 13 7 WNW 1018,7 10 48 0,0
15.06.2018 20:00:00 14,5 10,9 - - 16 9 W 1018,9 10 60 0,0
15.06.2018 19:00:00 14,7 10,6 - - 16 9 W 1018,8 10 18 0,0
15.06.2018 18:00:00 15,4 11,3 - - 16 9 W 1019,0 10 60 0,0
15.06.2018 17:00:00 15,3 11,1 - - 21 11 W 1019,6 10 60 0,0
15.06.2018 16:00:00 15,9 11,1 - - 21 11 W 1019,8 10 60 0,0
15.06.2018 15:00:00 16,2 11,8 - - 21 11 W 1019,9 10 48 0,0
15.06.2018 14:00:00 15,9 11,4 - - 18 10 W 1019,6 10 60 0,0
15.06.2018 13:00:00 16,3 12,0 - - 21 11 W 1019,6 10 60 0,0
15.06.2018 12:00:00 15,4 10,8 - - 18 10 W 1019,5 10 60 0,0
15.06.2018 11:00:00 15,0 10,4 - - 18 10 W 1019,3 10 48 0,0
15.06.2018 10:00:00 14,0 10,2 16,7 15,7 15 8 W 1019,1 10 42 0,0
15.06.2018 09:00:00 14,4 10,0 - - 15 8 WNW 1019,2 10 60 0,0
15.06.2018 08:00:00 13,8 11,4 - - 11 6 NW 1018,9 10 60 0,0
15.06.2018 07:00:00 12,9 12,1 - - 8 4 NW 1018,7 10 18 0,0
15.06.2018 06:00:00 10,7 10,2 - - 4 2 - 1018,5 10 0 0,0
15.06.2018 05:00:00 11,2 10,9 - - 8 4 NW 1018,2 10 0 0,0
15.06.2018 04:00:00 11,5 11,3 - - 5 3 WNW 1018,2 8 0 0,2
15.06.2018 03:00:00 11,4 11,1 - - 8 4 W 1018,3 9 0 0,0
15.06.2018 02:00:00 11,4 10,8 - - 5 3 W 1018,0 8 0 0,0
15.06.2018 01:00:00 12,5 12,0 - - 13 7 WNW 1018,3 10 - 0,0
15.06.2018 00:00:00 12,4 11,7 - - 15 8 WNW 1018,2 10 0 0,0
14.06.2018 23:00:00 12,6 11,8 - - 15 8 WNW 1018,2 10 0 0,0
14.06.2018 22:00:00 12,8 11,7 - - 13 7 WNW 1018,2 10 0 0,0
14.06.2018 21:00:00 13,3 11,7 - - 16 9 W 1017,8 10 48 0,0
14.06.2018 20:00:00 14,4 12,1 - - 24 13 W 1017,6 10 60 0,0
14.06.2018 19:00:00 15,2 11,7 - - 26 14 W 1017,1 10 60 0,0
14.06.2018 18:00:00 16,3 12,4 - - 26 14 W 1016,8 10 60 0,0
14.06.2018 17:00:00 16,3 12,4 - - 28 15 W 1016,6 10 60 0,0
14.06.2018 16:00:00 16,8 13,2 - - 26 14 W 1016,4 10 24 0,0

tt = temperatuur
td = dauwpunt
tt -20cm = temperatuur -20cm
tt -100cm = temperatuur -100cm
ff = windsnelheid
dd = windrichting
ppp = luchtdruk
vv = zicht
sd = Zonneschijnduur
rr = neerslag

Weerstations in de omgeving